www.pogodaiklimat.ru

Погода и климат >> Архив погоды >> Норвегия >> Рост аэропорт


ПОГОДА в Рост аэропорту

  • Прогноз погоды в Рост аэропорту
  • Монитор погоды в Рост аэропорту

АРХИВ ПОГОДЫ в Рост аэропорту

Время (UTC), дата Ветер
(напр.,м/с)
 
Видим.   Явления Облачность Т
(С)
Тd
(С)
f
(%)
Тe
(С)
Тes
(С)
Комфортность P
(гПа)
Po
(гПа)
Тmin
(С)
Tmax
(С)
R
(мм)
R24
(мм)
S
(см)
07 12.08 В 6
{8}
н/о н/о +13.7 +12.1 90 +11 +11 1000.2 999.9
08 12.08 В 5
{8}
н/о н/о +14.0 +12.2 89 +12 +12 1000.4 1000.1
09 12.08 В 5
{7}
н/о н/о +14.3 +12.5 89 +13 +13 1000.6 1000.2
10 12.08 В 5
{7}
н/о н/о +14.0 +12.4 90 +12 +12 1000.8 1000.5
11 12.08 В 6
{7}
н/о н/о +15.3 +12.6 84 +14 +14 1000.9 1000.5
12 12.08 В 6
{8}
н/о н/о +15.6 +12.5 82 +14 +14 1000.9 1000.6
13 12.08 В 5
{7}
н/о н/о +15.4 +12.4 82 +14 +14 1000.9 1000.5
14 12.08 СВ 4
{6}
н/о н/о +16.3 +12.9 80 +16 +16 1000.9 1000.5
15 12.08 С 3
{5}
н/о н/о +16.1 +13.2 83 +16 +16 1000.8 1000.4
16 12.08 СВ 4
{5}
н/о н/о +16.2 +12.4 78 +15 +15 1000.9 1000.5
17 12.08 С 4
{5}
н/о н/о +15.9 +13.2 84 +15 +15 1001.0 1000.6
18 12.08 С 4
{7}
н/о н/о +15.3 +13.5 89 +14 +14 1000.9 1000.5 +13.5 +17.0
19 12.08
{5}
н/о н/о +14.5 +13.1 91 1001.0 1000.6
20 12.08 С 4
{5}
н/о н/о +14.2 +12.9 92 +13 +13 1001.0 1000.6
21 12.08
{5}
н/о н/о +14.0 +13.1 94 1001.2 1000.8
22 12.08 С 4
{5}
н/о н/о +13.8 +12.9 94 +12 +12 1001.4 1001.1
23 12.08 С 5
{6}
н/о н/о +13.7 +12.9 95 +12 +12 1001.4 1001.0
00 13.08
{6}
н/о н/о +13.3 +12.5 95 1001.4 1001.0
01 13.08 С 4
{5}
н/о н/о +13.1 +12.5 96 +11 +11 1001.4 1001.0
02 13.08 С 5
{6}
н/о н/о +13.0 +12.4 96 +11 +11 1001.1 1000.8
03 13.08 СВ 5
{6}
н/о н/о +12.9 +12.3 96 +11 +11 1001.2 1000.8
04 13.08 С 5
{6}
н/о н/о +13.3 +12.4 94 +11 +11 1001.0 1000.7
05 13.08 С 5
{6}
н/о н/о +13.7 +12.4 92 +12 +12 1000.9 1000.5
06 13.08 СВ 5
{7}
н/о н/о +14.7 +12.4 86 +13 +13 1000.9 1000.6 +12.8 +15.3 0.2
07 13.08 СВ 5
{6}
н/о н/о +14.5 +12.4 87 +13 +13 1001.0 1000.7
08 13.08 СВ 5
{7}
н/о н/о +14.9 +12.2 84 +13 +13 1001.2 1000.8
09 13.08 СВ 5
{7}
н/о н/о +15.9 +12.3 79 +15 +15 1001.2 1000.8
10 13.08 СВ 4
{7}
н/о н/о +15.1 +12.4 84 +14 +14 1001.0 1000.7
11 13.08 СВ 5
{7}
н/о н/о +15.7 +12.3 80 +15 +15 1000.9 1000.5
12 13.08 С 6
{8}
н/о н/о +15.6 +12.9 84 +14 +14 1000.8 1000.5
13 13.08 С 5
{8}
н/о н/о +15.5 +12.5 82 +14 +14 1000.8 1000.4
14 13.08 С 5
{7}
н/о н/о +15.7 +12.6 82 +15 +15 1000.6 1000.2
15 13.08 С 7
{8}
н/о н/о +14.8 +12.3 85 +13 +13 1000.1 999.8
16 13.08 С 7
{8}
н/о н/о +14.4 +12.3 87 +12 +12 1000.1 999.7
17 13.08 С 5
{8}
н/о н/о +14.1 +12.2 88 +12 +12 1000.0 999.7
18 13.08 С 7
{9}
н/о н/о +13.4 +12.0 91 +11 +11 999.9 999.6 +13.4 +16.3
19 13.08 С 6
{9}
н/о н/о +13.1 +11.8 92 +11 +11 999.7 999.3
20 13.08 С 7
{9}
н/о н/о +13.0 +12.1 94 +10 +10 999.6 999.2
21 13.08 С 5
{8}
н/о н/о +13.0 +12.2 95 +11 +11 999.9 999.5
22 13.08 С 6
{7}
н/о н/о +13.0 +12.1 94 +10 +10 999.7 999.4
23 13.08 СВ 3
{7}
н/о н/о +12.8 +11.9 94 +11 +11 1000.0 999.7
00 14.08 С 4
{9}
н/о н/о +12.6 +11.8 95 +11 +11 1000.1 999.7 0.7
01 14.08 штиль 0
{4}
н/о н/о +12.8 +12.0 95 +12 +12 1000.3 1000.0
02 14.08 ЮЗ 6
{8}
н/о н/о +13.8 +13.3 97 +12 +12 1000.5 1000.2
03 14.08 ЮЗ 7
{9}
н/о н/о +13.5 +12.9 96 +11 +11 1000.7 1000.4
04 14.08 Ю 6
{9}
н/о н/о +13.4 +12.0 91 +11 +11 1001.0 1000.7
05 14.08 Ю 5
{8}
н/о н/о +13.2 +12.3 94 +11 +11 1001.4 1001.0
06 14.08 ЮЗ 5
{9}
н/о н/о +13.2 +11.8 91 +11 +11 1001.3 1001.0 +12.6 +14.0 6
07 14.08 Ю 5
{7}
н/о н/о +13.6 +11.8 89 +12 +12 1001.6 1001.2
08 14.08 Ю 5
{7}
н/о н/о +13.8 +11.9 88 +12 +12 1001.8 1001.4
09 14.08 Ю 5
{8}
н/о н/о +14.0 +11.5 85 +12 +12 1002.0 1001.7
10 14.08 Ю 6
{9}
н/о н/о +14.0 +11.3 84 +12 +12 1002.2 1001.8
11 14.08 Ю 5
{8}
н/о н/о +14.0 +11.7 86 +12 +12 1002.4 1002.1
12 14.08 Ю 5
{9}
н/о н/о +14.3 +12.0 86 +13 +13 1002.6 1002.3 0.4
13 14.08 Ю 5
{7}
н/о н/о +13.9 +11.4 85 +12 +12 1002.9 1002.5
14 14.08 Ю 6
{8}
н/о н/о +13.9 +11.8 87 +12 +12 1003.0 1002.7
15 14.08 Ю 6
{9}
н/о н/о +13.9 +11.6 86 +12 +12 1003.2 1002.9
16 14.08 Ю 5
{8}
н/о н/о +13.8 +11.5 86 +12 +12 1003.5 1003.1
17 14.08 Ю 6
{9}
н/о н/о +13.2 +11.3 88 +11 +11 1003.6 1003.3
18 14.08 ЮЗ 5
{9}
н/о н/о +12.9 +10.6 86 +11 +11 1003.7 1003.4 +12.8 +14.6 0.2
19 14.08 ЮЗ 4
{7}
н/о н/о +12.8 +11.0 89 +11 +11 1003.9 1003.5
20 14.08 ЮЗ 4
{7}
н/о н/о +12.7 +10.8 88 +11 +11 1004.2 1003.8
21 14.08 ЮЗ 4
{6}
н/о н/о +12.7 +10.8 88 +11 +11 1004.4 1004.1
22 14.08 ЮЗ 4
{6}
н/о н/о +12.7 +10.6 87 +11 +11 1004.5 1004.1
23 14.08 ЮЗ 4
{9}
н/о н/о +12.3 +10.5 89 +10 +10 1004.7 1004.4
00 15.08 ЮЗ 4
{9}
н/о н/о +12.3 +10.5 89 +10 +10 1005.0 1004.6
01 15.08 ЮЗ 5
{7}
н/о н/о +12.5 +10.4 87 +10 +10 1005.0 1004.7
02 15.08 ЮЗ 4
{7}
н/о н/о +12.6 +10.3 86 +11 +11 1005.2 1004.8
03 15.08 ЮЗ 4
{6}
н/о н/о +12.3 +9.9 85 +10 +10 1005.2 1004.9
04 15.08 ЮЗ 4
{7}
н/о н/о +12.3 +9.5 83 +10 +10 1005.3 1004.9
05 15.08 ЮЗ 6
{7}
н/о н/о +12.8 +9.3 79 +10 +10 1005.4 1005.1
06 15.08 ЮЗ 6
{7}
н/о н/о +13.1 +9.2 77 +11 +11 1005.6 1005.2 +12.0 +13.1
07 15.08 ЮЗ 5
{7}
н/о н/о +13.7 +10.1 79 +12 +12 1005.9 1005.5
08 15.08 З 5
{7}
н/о н/о +14.3 +8.9 70 +13 +13 1005.9 1005.6
09 15.08 ЮЗ 5
{7}
н/о н/о +14.4 +9.2 71 +13 +13 1006.2 1005.9
10 15.08 ЮЗ 4
{6}
н/о н/о +14.4 +9.4 72 +13 +13 1006.4 1006.0
11 15.08 З 5
{7}
н/о н/о +14.3 +9.1 71 +13 +13 1006.6 1006.2
12 15.08 З 5
{7}
н/о н/о +14.3 +8.3 67 +13 +13 1007.0 1006.6
13 15.08 З 5
{6}
н/о н/о +14.6 +8.3 66 +13 +13 1007.2 1006.9
14 15.08 З 4
{6}
н/о н/о +14.6 +8.1 65 +13 +13 1007.4 1007.0
15 15.08 ЮЗ 4
{5}
н/о н/о +13.9 +9.2 73 +12 +12 1007.4 1007.0
16 15.08 З 4
{5}
н/о н/о +15.0 +8.5 65 +14 +14 1007.5 1007.1
17 15.08 З 3
{5}
н/о н/о +13.7 +8.1 69 +13 +13 1007.6 1007.3
18 15.08 Ю 1
{6}
н/о н/о +13.2 +8.7 74 +13 +13 1007.6 1007.2 +13.1 +15.4
19 15.08 Ю 1
{2}
н/о н/о +12.9 +9.4 79 +13 +13 1007.5 1007.2
20 15.08 Ю 1
{2}
н/о н/о +12.3 +9.9 85 +12 +12 1007.5 1007.1
21 15.08 ЮВ 2
{2}
н/о н/о +11.2 +9.5 89 +10 +10 1007.4 1007.0
22 15.08 Ю 2
{2}
н/о н/о +10.9 +9.3 90 +10 +10 1007.3 1007.0
23 15.08 В 1
{2}
н/о н/о +10.1 +9.0 93 +10 +10 1007.1 1006.7
00 16.08 В 2
{2}
н/о н/о +10.6 +9.4 92 +9 +9 1006.8 1006.5
01 16.08 В 2
{3}
н/о н/о +10.9 +9.3 90 +10 +10 1006.5 1006.2
02 16.08 В 3
{3}
н/о н/о +10.4 +9.3 93 +8 +8 1006.2 1005.9
03 16.08 В 2
{3}
н/о н/о +10.6 +9.2 91 +9 +9 1005.8 1005.5
04 16.08 В 3
{4}
н/о н/о +12.2 +10.1 87 +11 +11 1005.6 1005.2
05 16.08 В 4
{5}
н/о н/о +12.6 +10.0 84 +11 +11 1005.2 1004.8
06 16.08 В 5
{7}
н/о н/о +12.8 +10.0 83 +11 +11 1004.8 1004.5 +10.1 +13.2 1
07 16.08 В 7
{9}
н/о н/о +13.3 +10.3 82 +11 +11 1004.2 1003.8
08 16.08 В 7
{9}
н/о н/о +13.5 +10.5 82 +11 +11 1003.6 1003.3
09 16.08 В 7
{9}
н/о н/о +13.9 +10.5 80 +12 +12 1003.4 1003.1
10 16.08 В 6
{9}
н/о н/о +13.8 +10.6 81 +12 +12 1003.6 1003.3
11 16.08 В 5
{7}
н/о н/о +13.5 +10.9 84 +12 +12 1003.8 1003.5
12 16.08 В 5
{9}
н/о н/о +13.9 +10.3 79 +12 +12 1003.8 1003.4
13 16.08 В 5
{7}
н/о н/о +13.9 +10.3 79 +12 +12 1003.8 1003.5
14 16.08 Ю 4
{6}
н/о н/о +13.7 +11.2 85 +12 +12 1003.9 1003.5
15 16.08 Ю 6
{7}
н/о н/о +14.6 +12.5 87 +13 +13 1003.5 1003.2
16 16.08 Ю 7
{10}
н/о н/о +14.2 +10.8 80 +12 +12 1003.7 1003.4
17 16.08 Ю 7
{9}
н/о н/о +13.7 +11.1 84 +11 +11 1003.4 1003.1
18 16.08 Ю 9
{15}
н/о н/о +12.1 +11.2 94 +9 +9 1003.4 1003.0 +12.0 +14.9 2
19 16.08 Ю 9
{12}
н/о н/о +12.8 +11.0 89 +10 +10 1003.1 1002.8
20 16.08 Ю 9
{12}
н/о н/о +12.7 +10.8 88 +9 +9 1003.0 1002.7
21 16.08 Ю 10
{14}
н/о н/о +12.5 +11.1 91 +9 +9 1002.7 1002.3
22 16.08 Ю 9
{13}
н/о н/о +12.6 +11.3 92 +9 +9 1002.7 1002.4
23 16.08 Ю 9
{12}
н/о н/о +12.4 +11.0 91 +9 +9 1002.7 1002.4
00 17.08 Ю 8
{14}
н/о н/о +12.1 +10.7 91 +9 +9 1002.8 1002.4 5
01 17.08 Ю 6
{14}
н/о н/о +11.9 +10.6 92 +9 +9 1002.8 1002.4
02 17.08 Ю 7
{11}
н/о н/о +11.6 +10.5 93 +8 +8 1002.9 1002.6
03 17.08 Ю 7
{10}
н/о н/о +12.1 +10.7 91 +9 +9 1002.8 1002.4
04 17.08 Ю 7
{10}
н/о н/о +12.4 +10.3 87 +9 +9 1002.6 1002.3
05 17.08 Ю 6
{8}
н/о н/о +12.5 +10.6 88 +10 +10 1002.6 1002.3
06 17.08 Ю 5
{14}
н/о н/о +13.2 +10.7 85 +11 +11 1002.5 1002.1 +11.6 +13.2 7
07 17.08 Ю 4
{6}
н/о н/о +14.1 +10.5 79 +13 +13 1002.4 1002.0
08 17.08 Ю 2
{5}
н/о н/о +14.2 +10.2 77 +14 +14 1002.3 1001.9
09 17.08 В 3
{4}
н/о н/о +14.1 +10.5 79 +13 +13 1002.0 1001.6
10 17.08 В 4
{5}
н/о н/о +13.7 +10.3 80 +12 +12 1001.6 1001.3
11 17.08 В 5
{7}
н/о н/о +13.6 +10.2 80 +12 +12 1001.2 1000.8
12 17.08 В 6
{9}
н/о н/о +13.4 +10.8 84 +11 +11 1000.7 1000.4
13 17.08 В 7
{10}
н/о н/о +13.4 +10.8 84 +11 +11 1000.1 999.8
14 17.08 СВ 7
{10}
н/о н/о +13.6 +11.0 84 +11 +11 999.3 999.0
15 17.08 СВ 7
{10}
н/о н/о +13.7 +10.7 82 +11 +11 998.6 998.2
16 17.08 В 9
{12}
н/о н/о +13.9 +10.9 82 +11 +11 997.9 997.5
17 17.08 В 8
{11}
н/о н/о +13.7 +11.1 84 +11 +11 997.5 997.1
18 17.08 В 6
{12}
н/о н/о +13.7 +11.8 88 +11 +11 997.3 996.9 +13.2 +14.4 3
19 17.08 СВ 6
{8}
н/о н/о +13.7 +11.9 89 +11 +11 996.7 996.3
20 17.08 В 6
{8}
н/о н/о +13.3 +11.9 91 +11 +11 996.3 996.0
21 17.08 В 5
{7}
н/о н/о +13.9 +12.3 90 +12 +12 996.7 996.3
22 17.08 В 4
{5}
н/о н/о +13.3 +12.4 94 +12 +12 996.7 996.4
23 17.08 В 3
{4}
н/о н/о +13.4 +12.8 96 +12 +12 996.7 996.3
00 18.08 В 4
{8}
н/о н/о +12.8 +12.3 97 +11 +11 996.2 995.9 5
01 18.08 В 6
{8}
н/о н/о +12.9 +12.4 97 +10 +10 996.1 995.7
02 18.08 В 6
{8}
н/о н/о +13.7 +12.3 91 +11 +11 995.9 995.6
03 18.08 В 6
{8}
н/о н/о +13.6 +12.0 90 +11 +11 995.6 995.2
04 18.08 В 6
{9}
н/о н/о +13.6 +12.2 91 +11 +11 995.6 995.2
05 18.08 ЮВ 6
{9}
н/о н/о +14.8 +12.0 83 +13 +13 995.7 995.3
06 18.08 ЮВ 5
{9}
н/о н/о +15.0 +12.5 85 +14 +14 996.0 995.7 +12.8 +15.3 5
07 18.08 Ю 4
{8}
н/о н/о +14.4 +13.3 93 +13 +13 996.4 996.1
08 18.08 ЮЗ 2
{7}
н/о н/о +13.9 +12.8 93 +13 +13 996.8 996.4
09 18.08 ЮЗ 3
{5}
н/о н/о +14.5 +12.9 90 +14 +14 997.0 996.6
10 18.08 Ю 3
{5}
н/о н/о +14.1 +13.2 94 +13 +13 997.7 997.3
11 18.08 Ю 4
{6}
н/о н/о +14.1 +13.5 96 +13 +13 998.2 997.8
12 18.08 ЮЗ 4
{8}
н/о н/о +14.5 +13.7 95 +13 +13 998.6 998.2 3
13 18.08 Ю 3
{5}
н/о н/о +14.7 +13.4 92 +14 +14 999.3 999.0
14 18.08 Ю 4
{6}
н/о н/о +14.8 +13.5 92 +14 +14 999.7 999.4
15 18.08 ЮЗ 6
{8}
н/о н/о +15.1 +12.6 85 +13 +13 1000.0 999.7
16 18.08 ЮЗ 5
{7}
н/о н/о +14.8 +12.0 83 +13 +13 1000.5 1000.1
17 18.08 ЮЗ 4
{7}
н/о н/о +14.5 +11.5 82 +13 +13 1000.7 1000.4
18 18.08 Ю 3
{8}
н/о н/о +14.0 +11.5 85 +13 +13 1001.1 1000.7 +13.8 +16.0 2
19 18.08 ЮЗ 3
{3}
н/о н/о +12.4 +10.8 90 +11 +11 1001.1 1000.7
20 18.08 Ю 1
{4}
н/о н/о +11.2 +10.3 94 +11 +11 1001.3 1000.9
21 18.08 штиль 0
{1}
н/о н/о +10.9 +10.1 95 +10 +10 1001.3 1000.9
22 18.08 В 2
{2}
н/о н/о +10.7 +10.2 97 +9 +9 1001.3 1001.0
23 18.08 В 2
{3}
н/о н/о +11.7 +11.2 97 +10 +10 1001.0 1000.6
00 19.08 В 3
{4}
н/о н/о +12.5 +11.4 93 +11 +11 1000.7 1000.4
01 19.08 СВ 4
{5}
н/о н/о +12.5 +11.4 93 +10 +10 1000.1 999.8
02 19.08 СВ 4
{5}
н/о н/о +12.7 +11.4 92 +11 +11 1000.0 999.6
03 19.08 СВ 4
{5}
н/о н/о +12.5 +11.6 94 +10 +10 999.5 999.1
05 19.08 СВ 5
{7}
н/о н/о +12.7 +11.4 92 +10 +10 998.7 998.4
06 19.08 СВ 4
{7}
н/о н/о +13.6 +11.1 85 +12 +12 998.3 998.0 +10.3 +14.0 0.2
07 19.08 СВ 4
{6}
н/о н/о +14.2 +11.7 85 +13 +13 998.1 997.7

 

Местоположение метеостанции Рост аэропорт (Норвегия): широта 67.52 долгота 12.10 высота над уровнем моря 4 м.

В архиве по умолчанию представлена погода в Рост аэропорту за последнюю неделю. Архивные данные за месяц целиком и за предыдущие месяцы, начиная с января 2011 года, Вы можете получить, выбрав интересующий диапазон дат из раскрывающегося списка и нажав кнопку "Ввод!".


*Определитесь, кто Вы:
робот инопланетянин человек

Внимание! Время в таблицах - всемирное. Для получения местного времени необходимо прибавить поправку, которая равна 1 ч.

Смотрите также архив погоды в соседних городах и на ближайших метеорологических станциях:

Погода в Аэропорту Vaeroy Heliport (Норвегия) (30 км)
Погода в Хеллигвере (Норвегия) (78 км)
Погода на Мыкене (Норвегия) (85 км)
Погода в Лекнесе (Норвегия) (96 км)
Погода в Рейпе (Норвегия) (96 км)
Погода в Бодо (Норвегия) (101 км)
Погода на Маяке Skrova (Норвегия) (128 км)
Погода в Солвер III (Норвегия) (130 км)
Погода в Сволваер аэропорту (Норвегия) (135 км)
Погода в Сетсе (Норвегия) (150 км)

Пояснения к столбцам:

Ветер - указаны скорость ветра в м/с - средняя за 10 мин, порывы в срок и между сроками (в фигурных скобках) и направление, откуда дует ветер: С - северный, СВ - северо-восточный, В - восточный, ЮВ - юго-восточный, Ю - южный, ЮЗ - юго-западный, З - западный, СЗ - северо-западный.
Видимость - горизонтальная дальность видимости в метрах или километрах. При видимости от 1 до 10 км при отсутствии осадков обычно наблюдается дымка, при ухудшении видимости до 1 км и менее - туман. В сухую погоду видимость может ухудшаться дымом, пылью или мглою.
Явления - указаны атмосферные явления, наблюдавшиеся в срок или в последний час перед сроком; фигурными скобками обозначены явления, наблюдавшиеся между сроками (за 1-3 часа до срока); квадратными скобками обозначены град или гололедные отложения с указанием их диаметра в мм.
Облачность - указаны через наклонную черту общая и нижняя облачность в баллах и высота нижней границы облаков в метрах; квадратными скобками обозначены формы облаков: Ci - перистые, Cs - перисто-слоистые, Cc - перисто-кучевые, Ac - высококучевые, As - высокослоистые, Sc - слоисто-кучевые, Ns - слоисто-дождевые, Cu - кучевые, Cb - кучево-дождевые. Подробнее классификацию облаков см. в Атласе облаков (PDF).
T - Температура воздуха - температура, измеренная на высоте 2 м над землей.
Td - Температура точки росы - температура, при понижении до которой содержащийся в воздухе водяной пар достигнет насыщения.
f - Относительная влажность воздуха - влажноcть воздуха, измеренная на высоте 2 м над землей.
Te - Эффективная температура - температура, которую ощущает одетый по сезону человек в тени. Характеристика душности погоды. При расчете учитывается влияние влажности воздуха и скорости ветра на теплоощущения человека.
Tes - Эффективная температура на солнце - температура, которую ощущает человек, с поправкой на солнечный нагрев. Характеристика знойности погоды. Зависит от высоты солнца над горизонтом, облачности и скорости ветра. Ночью, в пасмурную погоду, а также при ветре 12 м/с и более поправка равна нулю.
P - Атмосферное давление - приведенное к уровню моря атмосферное давление.
Po - Атмосферное давление - измеренное на уровне метеостанции атмосферное давление.
Tmin - Минимальная температура - минимум температуры воздуха на высоте 2 м над землей.
Tmax - Максимальная температура - максимум температуры воздуха на высоте 2 м над землей.
R - Количество осадков - Количество выпавших осадков за период времени, мм. При наведении курсора мыши на число - период времени, за который выпало указанное количество осадков.
R24 - Количество осадков - Количество выпавших осадков за 24 часа, мм.
S - Снежный покров - Высота снежного покрова, см. При наведении курсора мыши на число - состояние снежного покрова и степень покрытия местности в баллах.